Regional Weather Roundup
Issued by NWS Newport/Morehead, NC

Current Version | Previous Version | Graphics & Text | Print | Product List | Glossary Off
Versions: 1 2 3 4 5 6 7 8 9 10 11 12 13 14 15 16 17 18 19 20 21 22 23 24 25 26 27 28 29 30 31 32 33 34 35 36 37 38 39 40 41 42 43 44 45 46 47 48 49 50

000
ASUS42 KMHX 200410
RWRMHX
WEATHER ROUNDUP FOR EASTERN NORTH CAROLINA
NATIONAL WEATHER SERVICE NEWPORT/MOREHEAD CITY NC
1100 PM EST FRI DEC 19 2014

NOTE: "FAIR" INDICATES FEW OR NO CLOUDS BELOW 12,000 FEET
WITH NO SIGNIFICANT WEATHER AND/OR OBSTRUCTIONS TO VISIBILITY

NCZ015>017-031-032-045>047-102-103-200500-
NORTH COAST

CITY           SKY/WX    TMP DP  RH WIND       PRES   REMARKS
EDENTON          N/A     35  31  88 NE5       30.23S
ELIZABETH CITY PTCLDY    40  31  70 NE6       30.24R
KITTY HAWK     PTCLDY    40  32  71 N3        30.22R
MANTEO         PTCLDY    40  32  74 N7        30.23S

$$

NCZ045>047-081-094-103-104-200500-
CENTRAL COAST

CITY           SKY/WX    TMP DP  RH WIND       PRES   REMARKS
FRISCO         PTCLDY    41  34  76 NE6       30.22R
SWANQUARTER      N/A     36 N/A N/A E1        30.18S

$$

NCZ095-097-098-100-101-200500-
SOUTHERN COAST

CITY           SKY/WX    TMP DP  RH WIND       PRES   REMARKS
BEAUFORT       MOCLDY    41  36  82 NE3       30.22R
CEDAR ISLAND     N/A     45 N/A N/A N6G12     30.24S
JACKSONVILLE   MOCLDY    40  32  73 NE6       30.21R
PINEY ISLAND   PTCLDY    45  34  65 N8        30.22R
WILMINGTON     CLOUDY    45  34  65 NE8       30.19S


$$

NCZ011>013-027>030-043-044-078>080-089-090>093-098-200500-
COASTAL PLAIN

CITY           SKY/WX    TMP DP  RH WIND       PRES   REMARKS
AHOSKIE        CLOUDY    30  28  90 N3        30.24S
CLINTON        CLOUDY    43  33  69 CALM      30.20S
ELIZABETHTOWN  CLOUDY    43  33  68 CALM      30.19S
GOLDSBORO      PTCLDY    37  36  97 CALM      30.19F
GREENVILLE     PTCLDY    32  32 100 CALM      30.24R
HAVELOCK       PTCLDY    39  33  79 E3        30.22S
KENANSVILLE    MOCLDY    36  33  86 CALM      30.22S
KINSTON        PTCLDY    35  32  90 CALM      30.22S
NEW BERN       PTCLDY    39  31  72 CALM      30.23R
RICHLANDS      MOCLDY    37  28  70 N5        30.22S
ROCKY MOUNT    MOCLDY    33  31  92 NE3       30.22S
WASHINGTON     PTCLDY    33  31  92 CALM      30.23R
WHITEVILLE     CLOUDY    45  34  65 CALM      30.18S

$$

AMZ130-135-150-152-154-156-158-170-250-252-270-ANZ085-086-088-633-658-670-200500-
MARINE OBSERVATIONS

STATION/POSITION TIME  TEMP    WIND        PRES    WAVE   SWELL
                       AIR SEA DIR/SP/G            HT/PER HT/PER
                 (UTC) (F)     (DEG/KT/KT) (MB)    (FT/S) (FT/S)
CHESAPEAKE LIGHT 0300   40     360/ 14/ 16 1023.9
64 E VA BEACH    0400   43 54  340/ 14/ 17 1022.7    4/ 5   2/11
DUCK             0300   42 47   10/  9/ 12 1022.7
2 E DUCK         0400      47                N/A     3/ 6
10 NE DUCK       0400      51                N/A     3/ 6
OREGON INLET     0300   40 50  330/  5/  6 1023.3
13E OREGON INLT  0400      52                N/A     4/ 6
HATTERAS CG      0300   45 53   20/  8/ 10 1023.4
DIAMOND BUOY     0400   46                 1023.2    3/ 5
17 S OCRACOKE    NOT AVBL
CAPE LOOKOUT     0300   46      20/  7/  8 1022.5
BEAUFORT LAB     0300   42 53   40/  3/  5 1021.9
30 SE NEW RIVER  0400   52 61   30/ 10/ 12 1023.1    2/11   2/11
5 SE WRIGHTSVLE  NOT AVBL
225 S CAPE HAT   0345   66 72   10/  6/ 10 1020.6    2/10   2/10
41 SE CHARLESTON 0400   64 68   50/  4/  8 1020.3    2/10   2/10

$$



USA.gov is the U.S. government's official web portal to all federal, state and local government web resources and services.